�N����,����,�~����,�C��,���x,�C��,����,���ϕ���,�ő�u�ԕ���,�ő厞����,���˗�,�I�_���x,�n�����x,�ő啗���N��,DTYPE
"23/05/31","00:10",0.0,18.1,83.7,1005.2,317.9,2.6,4.2,309.1,0.00,15.3,19.9,"00:03:44",1
"23/05/31","00:20",0.0,17.9,84.6,1005.5,316.1,2.3,3.5,347.1,0.00,15.3,20.1,"00:19:52",1
"23/05/31","00:30",0.0,17.8,85.2,1006.0,320.5,2.8,4.5,327.3,0.00,15.3,20.1,"00:22:00",1
"23/05/31","00:40",0.0,17.9,85.5,1005.2,320.6,2.1,4.2,311.8,0.00,15.5,20.0,"00:34:00",1
"23/05/31","00:50",0.0,17.7,85.7,1005.2,317.7,1.7,4.8,327.6,0.00,15.3,19.9,"00:42:16",1
"23/05/31","01:00",0.0,17.7,86.1,1005.5,314.8,2.1,3.7,334.9,0.00,15.4,19.8,"00:55:20",1
"23/05/31","01:10",0.0,17.6,86.3,1005.5,320.6,2.2,4.0,331.2,0.00,15.3,20.0,"01:06:40",1
"23/05/31","01:20",0.0,17.4,86.7,1005.5,316.2,1.5,2.7,308.6,0.00,15.2,20.0,"01:10:32",1
"23/05/31","01:30",0.0,17.3,87.1,1004.8,269.1,1.2,2.1,255.2,0.00,15.2,19.8,"01:29:36",1
"23/05/31","01:40",0.0,17.3,87.3,1004.8,292.2,1.6,2.2,330.6,0.00,15.2,20.0,"01:38:00",1
"23/05/31","01:50",0.0,17.3,87.4,1004.8,322.9,2.5,4.0,339.2,0.00,15.2,19.9,"01:48:08",1
"23/05/31","02:00",0.0,17.5,87.3,1005.0,323.5,2.5,4.0,320.8,0.00,15.4,19.8,"01:57:52",1
"23/05/31","02:10",0.0,17.5,87.1,1005.2,322.2,2.6,3.7,320.0,0.00,15.4,19.7,"02:09:04",1
"23/05/31","02:20",0.0,17.5,86.8,1005.0,319.5,2.7,4.2,348.1,0.00,15.3,19.7,"02:18:00",1
"23/05/31","02:30",0.0,17.7,86.3,1004.8,323.4,2.6,3.6,339.6,0.00,15.4,19.7,"02:28:32",1
"23/05/31","02:40",0.0,17.6,86.3,1004.5,327.3,2.3,4.3,330.6,0.00,15.3,19.8,"02:35:44",1
"23/05/31","02:50",0.2,17.5,86.8,1004.5,335.3,1.7,3.2,333.4,0.00,15.3,19.7,"02:40:16",1
"23/05/31","03:00",0.0,17.2,87.6,1004.5,332.7,1.7,3.9,350.5,0.00,15.2,19.8,"02:58:08",1
"23/05/31","03:10",0.0,17.1,88.5,1004.8,332.8,2.7,4.1,330.0,0.00,15.2,19.6,"03:09:44",1
"23/05/31","03:20",0.0,17.0,89.2,1004.5,335.0,2.0,3.9,316.7,0.00,15.2,19.5,"03:17:12",1
"23/05/31","03:30",0.2,17.0,89.9,1005.0,332.7,2.5,4.8,307.5,0.00,15.4,19.4,"03:28:32",1
"23/05/31","03:40",0.0,16.9,90.3,1004.8,336.3,2.7,5.2,338.2,0.00,15.3,19.5,"03:34:40",1
"23/05/31","03:50",0.0,16.8,90.7,1004.5,326.6,2.8,5.1,333.2,0.00,15.3,19.3,"03:48:18",1
"23/05/31","04:00",0.0,16.8,90.9,1005.0,330.4,2.5,3.7,320.3,0.00,15.3,19.5,"03:50:08",1
"23/05/31","04:10",0.0,16.7,91.2,1005.0,315.7,1.8,3.5,327.8,0.00,15.3,19.5,"04:09:56",1
"23/05/31","04:20",0.0,16.8,91.2,1005.0,335.3,2.7,4.5,322.3,0.00,15.4,19.6,"04:19:34",1
"23/05/31","04:30",0.0,16.9,91.1,1004.8,335.0,3.0,4.7,332.1,0.00,15.5,19.6,"04:26:40",1
"23/05/31","04:40",0.0,16.9,91.2,1005.0,327.0,2.6,3.9,334.4,0.00,15.5,19.4,"04:32:48",1
"23/05/31","04:50",0.0,16.8,91.3,1005.0,332.1,2.1,3.5,334.7,0.00,15.4,19.4,"04:41:12",1
"23/05/31","05:00",0.0,16.8,91.4,1005.0,335.2,2.0,3.3,344.3,0.00,15.4,19.3,"04:56:32",1
"23/05/31","05:10",0.0,16.7,91.6,1005.0,332.8,2.1,3.6,310.4,0.00,15.4,19.2,"05:07:28",1
"23/05/31","05:20",0.0,16.7,91.8,1005.0,332.8,2.1,3.4,347.4,0.00,15.4,19.4,"05:19:20",1
"23/05/31","05:30",0.0,16.8,91.8,1005.0,331.9,2.5,4.3,341.0,0.00,15.5,19.3,"05:22:00",1
"23/05/31","05:40",0.0,16.8,91.9,1005.0,338.2,2.2,3.7,345.9,0.00,15.5,19.2,"05:37:44",1
"23/05/31","05:50",0.0,16.7,92.0,1004.8,336.0,1.7,2.8,345.4,0.00,15.4,19.3,"05:44:32",1
"23/05/31","06:00",0.0,16.8,92.0,1004.8,333.8,2.0,3.3,341.3,0.00,15.5,19.3,"05:55:04",1
"23/05/31","06:10",0.0,16.9,92.0,1005.0,330.7,2.6,3.7,338.0,0.00,15.6,19.3,"06:05:36",1
"23/05/31","06:20",0.0,17.0,91.9,1005.0,330.2,2.7,5.6,341.3,0.00,15.7,19.3,"06:10:02",1
"23/05/31","06:30",0.0,17.0,91.8,1005.7,330.4,4.0,6.0,343.7,0.00,15.7,19.2,"06:28:24",1
"23/05/31","06:40",0.0,17.1,91.7,1005.7,324.1,3.2,5.7,320.5,0.00,15.8,19.4,"06:34:32",1
"23/05/31","06:50",0.0,17.1,91.7,1006.0,320.7,2.3,4.4,342.7,0.01,15.8,19.1,"06:40:56",1
"23/05/31","07:00",0.0,17.3,91.6,1006.0,315.0,2.2,3.4,340.2,0.01,16.0,19.2,"06:50:24",1
"23/05/31","07:10",0.0,17.5,91.5,1005.7,300.8,1.6,3.2,322.1,0.02,16.1,19.2,"07:01:04",1
"23/05/31","07:20",0.0,17.5,91.2,1005.7,314.6,1.8,3.4,334.0,0.03,16.1,19.1,"07:17:04",1
"23/05/31","07:30",0.0,17.7,90.9,1006.2,322.8,2.0,2.7,343.1,0.03,16.2,18.9,"07:20:08",1
"23/05/31","07:40",0.0,17.7,90.7,1006.4,311.1,1.7,2.9,312.5,0.04,16.2,19.2,"07:36:08",1
"23/05/31","07:50",0.0,18.1,90.2,1006.7,329.5,1.7,3.1,326.4,0.05,16.5,19.2,"07:44:40",1
"23/05/31","08:00",0.0,18.2,89.6,1006.7,330.7,2.0,3.1,326.9,0.05,16.5,19.1,"07:51:20",1
"23/05/31","08:10",0.0,18.2,88.9,1006.9,332.5,1.7,2.6,330.3,0.03,16.4,19.0,"08:09:04",1
"23/05/31","08:20",0.0,18.3,88.1,1007.1,323.7,2.0,3.5,344.8,0.05,16.3,19.0,"08:12:08",1
"23/05/31","08:30",0.0,18.4,87.4,1006.7,309.2,2.1,3.6,346.8,0.04,16.3,19.1,"08:24:08",1
"23/05/31","08:40",0.0,18.7,87.0,1006.2,342.4,1.0,1.9,342.7,0.05,16.5,19.2,"08:31:04",1
"23/05/31","08:50",0.0,19.0,86.7,1006.0,302.9,1.0,1.6,294.1,0.10,16.8,19.1,"08:40:24",1
"23/05/31","09:00",0.0,19.0,85.7,1006.7,260.1,1.2,2.2,255.0,0.09,16.6,19.3,"08:56:32",1
"23/05/31","09:10",0.0,19.3,84.4,1006.7,305.2,1.6,2.5,312.4,0.08,16.6,19.2,"09:07:36",1
"23/05/31","09:20",0.0,19.3,83.7,1006.9,307.5,2.0,3.4,338.9,0.08,16.5,19.1,"09:19:04",1
"23/05/31","09:30",0.0,19.3,83.7,1006.9,329.0,2.6,5.1,345.9,0.13,16.5,19.3,"09:27:52",1
"23/05/31","09:40",0.0,19.8,84.0,1006.7,300.3,1.7,3.1,322.5,0.18,17.1,19.2,"09:37:44",1
"23/05/31","09:50",0.0,20.3,81.8,1006.0,294.0,1.6,2.9,329.4,0.23,17.1,19.3,"09:40:02",1
"23/05/31","10:00",0.0,20.4,79.4,1006.0,316.6,1.7,3.3,317.2,0.18,16.8,19.3,"09:55:52",1
"23/05/31","10:10",0.0,20.8,77.1,1006.0,292.5,1.1,2.4,245.1,0.17,16.7,19.3,"10:06:44",1
"23/05/31","10:20",0.0,20.6,76.3,1006.2,311.3,1.6,4.4,339.5,0.11,16.3,19.1,"10:16:16",1
"23/05/31","10:30",0.0,20.4,77.3,1006.2,300.1,2.1,3.9,338.9,0.10,16.3,19.2,"10:20:16",1
"23/05/31","10:40",0.0,20.4,78.0,1006.0,294.9,1.8,3.6,327.6,0.13,16.5,19.2,"10:31:36",1
"23/05/31","10:50",0.0,20.4,77.9,1006.4,318.3,2.5,4.0,343.3,0.14,16.5,19.2,"10:47:04",1
"23/05/31","11:00",0.0,20.8,75.5,1006.4,331.3,3.1,6.4,342.5,0.20,16.4,19.3,"10:52:08",1
"23/05/31","11:10",0.0,21.0,72.6,1006.0,344.1,2.3,4.7,332.2,0.21,15.9,19.3,"11:00:16",1
"23/05/31","11:20",0.0,21.3,70.6,1006.0,347.6,1.6,3.2,11.8,0.14,15.8,19.2,"11:11:20",1
"23/05/31","11:30",0.0,21.5,70.9,1006.2,320.9,1.6,3.2,325.0,0.17,16.0,19.3,"11:21:44",1
"23/05/31","11:40",0.0,21.7,70.4,1006.0,253.4,1.3,3.4,217.6,0.23,16.1,19.5,"11:39:36",1
"23/05/31","11:50",0.0,21.5,70.2,1006.2,301.8,1.8,3.7,320.3,0.16,15.9,19.4,"11:44:40",1
"23/05/31","12:00",0.0,21.5,68.9,1005.7,308.9,1.5,4.3,349.5,0.17,15.6,19.5,"11:52:32",1
"23/05/31","12:10",0.0,21.5,68.9,1005.7,301.5,2.1,4.0,322.5,0.20,15.6,19.3,"12:05:44",1
"23/05/31","12:20",0.0,22.3,68.6,1005.5,310.2,1.5,3.1,341.8,0.28,16.3,19.3,"12:12:16",1
"23/05/31","12:30",0.0,22.2,65.5,1005.7,319.0,1.6,3.7,347.6,0.18,15.5,19.4,"12:28:00",1
"23/05/31","12:40",0.0,22.1,67.0,1005.5,317.1,1.8,3.9,326.9,0.21,15.7,19.4,"12:35:12",1
"23/05/31","12:50",0.0,22.4,65.7,1005.7,312.5,1.8,3.3,258.1,0.25,15.7,19.3,"12:45:04",1
"23/05/31","13:00",0.0,22.3,63.9,1005.5,331.3,2.0,5.2,310.6,0.24,15.2,19.4,"12:56:08",1
"23/05/31","13:10",0.0,22.2,62.3,1005.7,335.5,2.5,4.5,343.8,0.22,14.7,19.6,"13:07:04",1
"23/05/31","13:20",0.0,22.7,61.4,1006.0,335.1,2.1,3.6,326.5,0.24,14.9,19.6,"13:19:36",1
"23/05/31","13:30",0.0,23.0,59.1,1005.5,337.3,2.2,4.1,346.1,0.32,14.6,19.5,"13:20:16",1
"23/05/31","13:40",0.0,23.3,57.4,1005.7,343.1,2.1,4.2,338.7,0.32,14.5,19.6,"13:31:44",1
"23/05/31","13:50",0.0,23.0,56.5,1005.2,331.0,2.6,5.7,335.6,0.26,13.9,19.6,"13:42:08",1
"23/05/31","14:00",0.0,23.0,54.7,1005.0,335.3,2.1,3.2,342.7,0.25,13.4,19.8,"13:55:52",1
"23/05/31","14:10",0.0,23.3,53.1,1005.2,333.8,2.0,3.9,349.4,0.25,13.3,19.7,"14:02:08",1
"23/05/31","14:20",0.0,23.5,50.8,1005.2,330.5,1.7,2.9,339.5,0.24,12.8,19.7,"14:10:40",1
"23/05/31","14:30",0.0,23.7,51.4,1005.0,334.6,1.8,3.6,331.6,0.22,13.1,19.7,"14:21:04",1
"23/05/31","14:40",0.0,24.5,53.9,1004.5,289.9,0.7,1.8,249.7,0.34,14.6,19.8,"14:39:20",1
"23/05/31","14:50",0.0,25.1,51.7,1004.3,314.8,1.1,2.7,358.9,0.33,14.5,19.7,"14:49:36",1
"23/05/31","15:00",0.0,24.5,48.6,1004.3,289.3,1.2,2.2,242.0,0.28,13.0,19.8,"14:54:32",1
"23/05/31","15:10",0.0,24.3,51.8,1004.5,297.6,1.3,3.2,236.7,0.20,13.8,19.8,"15:00:40",1
"23/05/31","15:20",0.0,24.6,47.7,1003.8,354.5,1.6,3.2,3.2,0.32,12.8,19.8,"15:10:16",1
"23/05/31","15:30",0.0,25.5,45.5,1003.8,345.2,1.0,2.4,34.5,0.39,12.9,20.1,"15:28:08",1
"23/05/31","15:40",0.0,26.0,42.8,1003.6,328.7,1.1,2.8,355.2,0.43,12.4,19.9,"15:36:24",1
"23/05/31","15:50",0.0,26.1,46.0,1003.4,266.7,1.2,2.8,243.2,0.42,13.6,20.2,"15:43:52",1
"23/05/31","16:00",0.0,25.6,45.8,1002.9,244.4,1.6,5.9,244.4,0.36,13.1,20.0,"15:50:56",1
"23/05/31","16:10",0.0,25.9,46.0,1003.4,237.2,1.5,3.2,227.7,0.37,13.4,20.0,"16:03:44",1
"23/05/31","16:20",0.0,25.9,42.7,1003.1,269.9,1.6,2.7,254.1,0.35,12.3,20.0,"16:10:08",1
"23/05/31","16:30",0.0,26.2,44.2,1002.9,196.7,1.2,2.9,298.4,0.33,13.1,20.2,"16:29:36",1
"23/05/31","16:40",0.0,26.3,38.6,1002.4,280.8,1.5,3.4,346.5,0.31,11.1,20.2,"16:35:52",1
"23/05/31","16:50",0.0,26.5,40.3,1002.6,266.7,1.3,2.7,240.2,0.29,12.0,20.1,"16:44:00",1
"23/05/31","17:00",0.0,26.8,38.8,1002.4,319.7,1.0,3.4,351.2,0.26,11.7,20.3,"16:50:24",1
"23/05/31","17:10",0.0,26.9,39.4,1002.9,267.2,1.0,2.8,330.7,0.24,12.0,20.2,"17:04:08",1
"23/05/31","17:20",0.0,26.3,41.1,1002.6,346.9,1.7,4.4,349.2,0.21,12.1,20.4,"17:14:56",1
"23/05/31","17:30",0.0,25.7,42.5,1002.9,340.6,1.8,3.3,326.2,0.19,12.1,20.3,"17:28:56",1
"23/05/31","17:40",0.0,25.6,43.1,1003.1,359.7,1.8,3.3,348.4,0.14,12.2,20.3,"17:36:16",1
"23/05/31","17:50",0.0,25.6,43.5,1002.9,356.5,1.6,3.3,352.6,0.02,12.3,20.4,"17:47:36",1
"23/05/31","18:00",0.0,24.9,43.5,1003.6,343.6,2.1,4.2,347.9,0.01,11.7,20.3,"17:58:24",1
"23/05/31","18:10",0.0,24.4,44.4,1003.8,347.6,2.6,5.5,334.9,0.01,11.5,20.3,"18:09:28",1
"23/05/31","18:20",0.0,23.7,44.8,1004.1,344.6,3.2,5.7,314.6,0.01,11.0,20.5,"18:18:32",1
"23/05/31","18:30",0.0,23.3,44.3,1004.3,335.3,3.0,5.9,308.7,0.01,10.5,20.4,"18:26:16",1
"23/05/31","18:40",0.0,23.1,46.4,1004.1,334.5,3.0,5.1,338.6,0.00,11.0,20.4,"18:35:12",1
"23/05/31","18:50",0.0,22.9,48.3,1004.3,339.0,3.1,5.4,346.9,0.00,11.5,20.3,"18:45:44",1
"23/05/31","19:00",0.0,22.5,49.3,1004.8,338.7,2.5,6.4,345.0,0.00,11.4,20.5,"18:50:48",1
"23/05/31","19:10",0.0,22.1,51.2,1004.3,337.7,3.0,6.6,332.7,0.01,11.6,20.2,"19:03:28",1
"23/05/31","19:20",0.0,21.4,51.2,1004.8,336.3,3.0,5.2,330.9,0.00,11.0,20.4,"19:18:00",1
"23/05/31","19:30",0.0,20.8,53.6,1005.0,335.3,2.6,5.5,343.1,0.00,11.1,20.5,"19:25:20",1
"23/05/31","19:40",0.0,20.3,55.5,1005.2,332.4,2.6,4.8,341.4,0.00,11.1,20.3,"19:32:00",1
"23/05/31","19:50",0.0,20.0,56.9,1005.0,337.2,2.5,4.9,332.6,0.00,11.2,20.1,"19:48:32",1
"23/05/31","20:00",0.0,19.9,56.7,1005.0,332.2,3.1,5.1,328.0,0.00,11.1,20.3,"19:59:20",1
"23/05/31","20:10",0.0,19.6,58.7,1005.2,328.5,2.7,4.4,328.5,0.00,11.3,20.0,"20:05:04",1
"23/05/31","20:20",0.0,19.3,60.4,1005.7,318.5,2.5,4.1,315.9,0.00,11.5,20.1,"20:13:04",1
"23/05/31","20:30",0.0,19.3,60.6,1005.7,316.2,3.0,5.1,313.1,0.00,11.5,20.2,"20:23:36",1
"23/05/31","20:40",0.0,18.9,61.7,1006.2,306.4,1.6,3.9,336.8,0.00,11.4,20.1,"20:36:48",1
"23/05/31","20:50",0.0,18.4,63.5,1006.2,270.5,1.3,3.3,267.1,0.00,11.4,20.0,"20:41:52",1
"23/05/31","21:00",0.0,18.0,65.3,1006.2,306.8,1.8,3.1,332.1,0.00,11.4,20.0,"20:52:00",1
"23/05/31","21:10",0.0,17.8,66.6,1006.7,296.7,1.7,3.1,267.5,0.00,11.5,19.9,"21:00:40",1
"23/05/31","21:20",0.0,17.2,68.2,1006.4,299.5,1.3,2.6,338.4,0.00,11.3,20.0,"21:10:02",1
"23/05/31","21:30",0.0,17.1,69.5,1006.4,334.8,2.0,3.9,343.5,0.00,11.5,19.8,"21:27:44",1
"23/05/31","21:40",0.0,17.0,70.5,1006.7,333.4,2.7,3.6,335.5,0.00,11.6,19.8,"21:37:20",1
"23/05/31","21:50",0.0,17.1,70.9,1006.9,325.4,2.6,3.6,336.1,0.00,11.8,19.7,"21:44:24",1
"23/05/31","22:00",0.0,16.8,71.6,1006.7,328.3,2.6,3.7,337.0,0.00,11.7,19.8,"21:59:20",1
"23/05/31","22:10",0.0,16.6,72.3,1006.7,333.6,2.2,4.2,338.6,0.00,11.6,19.7,"22:06:08",1
"23/05/31","22:20",0.0,16.2,73.8,1007.1,336.1,2.0,3.2,343.6,0.00,11.6,19.6,"22:16:40",1
"23/05/31","22:30",0.0,16.0,74.9,1007.1,338.5,2.1,3.5,345.4,0.00,11.6,19.5,"22:23:28",1
"23/05/31","22:40",0.0,15.8,75.5,1007.1,337.3,2.0,2.9,346.9,0.00,11.5,19.7,"22:37:06",1
"23/05/31","22:50",0.0,15.8,75.9,1007.4,338.7,1.8,3.3,341.3,0.00,11.6,19.5,"22:47:30",1
"23/05/31","23:00",0.0,15.6,76.3,1007.4,337.9,2.0,3.9,342.4,0.00,11.5,19.5,"22:59:46",1
"23/05/31","23:10",0.0,15.7,75.9,1007.4,341.2,2.5,4.4,351.0,0.00,11.5,19.5,"23:03:56",1
"23/05/31","23:20",0.0,15.8,75.6,1007.4,340.6,2.1,3.5,338.5,0.00,11.5,19.5,"23:14:48",1
"23/05/31","23:30",0.0,15.5,76.1,1007.1,334.7,2.2,4.2,326.7,0.00,11.4,19.3,"23:27:06",1
"23/05/31","23:40",0.0,15.2,76.1,1007.4,344.7,1.6,2.6,342.2,0.00,11.1,19.2,"23:32:20",1
"23/05/31","23:50",0.0,15.1,76.4,1007.1,342.8,2.3,3.7,337.3,0.00,11.0,19.3,"23:47:08",1
"23/05/31","24:00",0.0,15.0,77.1,1007.1,335.0,2.2,4.1,0.3,0.00,11.1,19.1,"23:59:26",1
